Temperature
20 19 19 18 18 18 18 18 17 17 18 17 17 17 17 17 17 17 17 16 16 16 16 16 15 15 15 15 15 14 14 14 14 14 14 13 13 13 13 13 13 13 12
20 19 19 18 18 17 17 17 17 17 17 17 17 17 17 17 17 17 17 16 16 16 15 15 15 15 15 15 15 14 14 14 14 14 13 13 13 13 13 13 12 12 12
19 19 18 18 18 17 17 17 17 17 17 17 17 17 17 17 16 16 16 16 16 15 15 15 15 15 15 14 14 14 14 14 14 14 13 13 13 12 13 12 12 12 12
18 18 18 17 17 17 17 16 17 17 17 17 17 17 17 17 16 16 16 16 16 15 15 15 15 15 14 14 14 14 14 14 14 13 13 13 12 12 12 12 12 12 12
18 17 17 17 17 17 17 16 16 16 16 16 16 16 16 16 16 16 16 15 15 15 15 15 15 14 14 14 14 14 14 14 13 13 13 13 12 12 12 12 12 12 12
17 17 17 16 16 16 16 16 16 16 16 16 16 16 16 16 16 16 15 15 15 15 15 15 14 14 14 14 14 13 13 13 13 13 12 12 12 12 12 12 12 12 11
17 16 16 16 16 16 16 16 16 16 16 16 16 16 16 16 16 15 15 15 15 15 15 14 14 14 14 14 13 13 13 13 13 13 12 12 12 12 12 11 11 11 11
16 16 16 16 16 16 16 16 16 16 16 16 16 16 16 15 15 15 15 15 15 14 14 14 14 14 13 13 13 13 13 13 13 13 12 12 12 12 11 11 11 11 11
15 15 15 15 15 15 15 15 15 15 15 15 15 15 15 15 15 15 14 14 14 14 14 14 14 13 13 13 13 13 13 13 13 12 12 12 11 11 11 11 11 11 11
14 14 15 15 15 15 15 15 15 15 15 15 15 15 15 15 15 14 14 14 14 14 14 13 13 13 13 13 13 13 13 12 12 12 12 12 11 11 11 11 11 11 10
14 14 14 14 14 14 14 14 14 14 14 15 15 14 14 14 14 14 14 14 14 14 13 13 13 13 13 12 12 12 12 12 12 12 12 12 11 11 11 10 10 10 10
13 14 14 14 14 14 14 14 14 14 14 14 14 14 14 14 14 14 14 14 13 13 13 13 13 13 12 12 12 12 12 12 12 12 11 11 11 11 10 10 10 10 10
13 13 13 13 14 14 14 14 13 14 14 14 14 14 14 13 13 13 13 13 13 13 13 13 12 12 12 12 12 12 12 12 12 11 11 11 11 10 10 10 10 10 10
12 12 13 13 13 13 13 13 13 13 13 13 14 14 13 13 13 13 13 13 13 13 13 13 12 12 12 12 12 12 12 12 11 11 11 11 10 10 10 10 10 10 10
12 12 12 12 13 13 13 13 13 13 13 13 13 13 13 13 13 13 13 13 13 13 13 13 12 12 12 12 12 12 12 12 11 11 11 10 10 10 10 10 10 10 10
11 12 12 12 12 12 12 13 13 13 13 13 13 13 13 13 13 13 13 12 12 13 12 12 12 12 12 12 12 12 11 11 11 11 11 10 10 10 10 10 10 10 10
11 11 11 12 12 12 12 12 13 12 13 13 13 13 12 12 12 12 12 12 12 12 12 12 12 12 12 11 11 11 11 11 11 11 10 10 10 10 10 10 10 10 10
11 11 11 11 11 11 11 12 12 12 12 12 12 12 12 12 12 12 12 12 12 12 12 12 11 11 11 11 11 11 11 11 11 11 10 10 10 10 10 10 10 10 10
11 11 11 11 11 11 11 11 12 12 12 12 12 12 12 12 12 12 12 12 12 12 11 11 11 11 11 11 11 11 11 11 11 10 10 10 10 10 10 10 10 10 9
10 10 10 10 10 11 11 11 11 11 11 11 11 12 12 11 12 11 11 11 11 11 11 11 11 11 11 11 11 10 10 10 10 10 10 10 10 10 10 10 10 10 9
10 10 10 10 10 10 10 11 11 11 11 11 11 11 11 11 11 11 11 11 11 11 11 11 11 10 10 10 10 10 10 10 10 10 10 10 10 10 10 10 10 10 9
10 10 10 10 10 10 10 10 10 11 11 11 11 11 11 11 11 11 11 11 11 11 11 11 10 10 10 10 10 9 9 9 10 10 10 10 10 10 10 10 10 10 9
9 9 9 10 10 10 10 10 10 10 10 10 10 10 11 11 11 11 10 11 11 11 10 10 10 10 10 10 10 10 9 9 10 10 10 10 10 10 10 10 10 10 9
9 9 9 9 10 10 10 9 10 10 10 10 10 10 10 10 10 10 10 10 10 10 10 10 10 10 10 10 9 10 10 10 10 10 10 10 10 10 10 10 10 9 9
9 9 9 9 10 10 10 9 9 9 10 10 10 10 10 10 10 10 10 10 10 10 10 10 10 10 10 10 10 10 10 10 10 10 9 10 10 10 10 10 9 9 9
9 9 9 9 9 9 9 9 9 9 9 9 9 9 10 10 10 10 10 10 10 10 10 10 10 10 10 10 10 10 10 10 10 10 10 10 10 10 10 10 9 9 9
Wind_Speed
3 4 10 12 14 14 14 15 15 15 15 16 17 18 18 18 18 18 17 16 16 16 15 15 16 16 15 15 14 14 14 14 14 14 13 13 13 14 14 13 13 12 14
2 5 10 12 13 14 14 14 14 14 15 15 17 17 17 18 18 18 17 17 16 16 15 15 16 15 15 15 15 14 14 14 14 13 13 12 13 13 14 13 13 12 14
1 4 7 10 12 14 14 14 14 14 15 15 15 17 17 17 18 17 17 17 16 16 15 15 16 15 15 15 15 14 14 14 13 13 11 10 10 13 13 13 13 14 14
1 3 5 8 10 12 13 14 14 14 14 15 15 15 16 17 17 17 17 17 16 16 15 15 16 16 15 15 14 14 14 13 13 12 9 8 8 12 13 13 13 13 13
0 1 4 6 8 11 12 13 14 14 14 14 15 15 15 16 16 17 16 17 16 16 16 16 16 16 15 14 14 14 14 13 13 10 8 7 7 11 12 12 12 12 12
1 1 3 5 7 9 11 13 14 14 14 14 15 15 15 15 15 16 17 17 16 16 16 16 16 16 15 15 14 14 14 14 12 9 8 7 7 10 11 11 11 11 11
2 2 3 5 6 8 9 11 13 14 14 14 14 15 15 15 15 15 16 17 17 16 16 17 16 16 15 15 14 14 14 13 11 9 7 6 6 9 11 11 10 10 10
2 3 3 5 6 7 9 9 11 12 14 14 14 14 15 15 15 15 16 16 16 16 16 17 17 16 16 15 14 14 13 13 10 8 6 5 6 9 10 10 9 9 8
3 3 3 5 6 6 7 8 10 11 12 13 14 14 14 15 15 15 16 16 16 16 17 17 17 17 16 15 14 14 13 12 9 6 5 4 6 8 9 9 8 7 8
4 3 4 4 5 5 6 8 9 10 11 11 13 13 13 14 15 15 16 16 16 16 17 17 17 17 16 15 14 14 13 11 8 6 4 5 7 8 8 8 7 7 6
5 4 4 4 5 4 5 7 8 9 10 10 11 12 12 11 12 12 14 16 16 16 15 17 17 17 16 14 14 14 12 9 7 5 4 6 7 8 8 7 6 5 5
8 7 5 5 5 5 5 5 6 7 8 8 8 9 9 9 9 10 12 14 15 15 15 16 17 16 13 10 12 12 9 8 6 5 5 7 7 7 7 7 6 5 4
9 8 7 6 5 5 5 4 4 4 6 6 7 8 8 7 8 8 8 9 11 12 10 11 12 10 10 9 8 8 8 7 6 5 6 7 7 7 7 6 6 6 5
9 10 7 6 6 6 6 5 4 4 5 5 7 9 7 5 5 5 5 6 6 7 6 6 7 8 9 9 9 8 7 6 6 5 6 7 8 8 7 7 6 6 5
11 10 8 7 7 6 6 5 5 5 6 7 7 8 9 6 6 6 5 6 6 7 7 6 7 8 8 7 7 8 7 7 7 6 6 7 8 8 8 8 7 7 7
11 10 8 7 7 7 6 6 6 5 7 7 7 9 10 8 7 7 7 7 7 8 8 7 7 8 7 7 7 7 7 7 7 7 7 7 7 8 9 8 8 8 7
11 10 9 8 7 7 6 7 6 6 7 7 7 9 10 10 9 8 7 7 8 9 8 7 6 6 7 7 7 7 6 7 7 7 7 7 7 7 8 9 8 8 8
9 9 9 8 7 8 7 6 6 6 6 7 7 8 10 11 11 8 8 8 9 9 8 7 7 6 7 7 6 6 5 5 6 7 7 7 7 7 8 8 8 9 8
9 9 9 7 8 8 7 5 6 6 6 6 7 8 10 11 12 9 8 8 10 8 7 8 7 6 7 7 7 5 4 5 5 6 6 7 8 8 8 8 8 8 9
8 9 9 8 9 8 6 4 4 5 6 6 7 8 10 10 11 10 8 9 10 8 8 8 8 6 6 7 6 4 3 4 4 5 6 6 7 9 9 8 7 7 8
6 8 9 8 8 7 5 5 5 6 6 6 6 8 10 10 11 10 9 9 10 10 10 10 7 7 5 5 4 2 1 2 4 5 5 5 6 8 8 9 8 8 8
6 7 8 8 8 8 7 6 5 5 5 5 6 7 9 10 11 10 10 10 10 9 10 11 8 6 5 7 5 5 1 2 3 5 4 6 6 5 6 8 9 9 9
6 6 7 8 9 8 7 4 3 3 3 4 5 6 8 10 11 10 11 11 11 11 11 12 12 11 8 7 6 6 5 5 2 2 4 5 5 5 5 6 8 9 10
7 6 6 7 7 7 7 7 7 6 6 6 6 6 7 9 10 10 10 12 12 11 11 12 12 9 11 9 6 3 3 4 4 2 2 3 4 6 6 5 6 8 9
6 5 5 6 6 6 7 9 8 8 7 5 5 7 7 8 10 10 10 11 12 11 12 12 11 11 10 10 8 5 3 2 2 3 3 3 3 4 5 5 5 6 8
4 4 5 5 5 5 6 8 9 10 8 7 7 7 7 6 7 10 10 10 12 11 12 12 12 13 11 10 8 7 6 5 5 4 4 5 4 3 3 4 5 6 7
Wind_Direction
258 214 194 179 173 170 166 162 158 156 155 153 152 152 151 150 149 146 145 143 140 136 134 132 128 125 122 120 117 115 112 108 107 105 105 103 101 99 96 92 87 85 88
232 193 187 180 176 175 172 168 163 159 157 157 158 156 154 153 152 151 148 146 143 140 137 134 131 127 125 123 120 117 113 109 107 103 102 104 104 102 99 98 95 91 88
140 172 180 178 179 179 177 173 168 164 162 160 160 159 158 156 156 155 153 151 148 145 141 137 133 131 129 126 124 121 117 115 110 105 96 92 102 105 102 99 94 92 89
148 157 177 177 179 181 181 177 173 171 168 165 162 161 162 161 161 160 159 156 152 148 144 141 137 135 133 131 129 126 122 119 115 106 89 89 99 109 106 101 95 93 90
110 170 186 180 181 184 185 181 179 177 174 171 168 165 164 167 167 165 163 159 154 152 148 145 142 141 138 136 132 129 126 121 117 104 93 89 95 109 107 103 99 97 94
310 299 210 189 187 188 187 186 184 183 180 177 174 172 171 169 169 170 166 161 158 155 153 151 147 145 143 140 136 132 129 125 116 105 98 95 101 113 111 107 102 101 99
307 291 230 211 199 197 192 190 190 188 185 182 179 177 176 174 171 169 167 164 161 160 159 155 152 150 147 143 140 137 134 129 119 112 108 108 114 119 117 112 107 105 104
276 277 247 220 213 204 200 195 193 193 191 188 186 182 180 179 177 174 168 165 167 166 164 160 157 154 151 148 145 143 139 134 127 121 122 124 130 126 123 119 113 109 108
285 265 253 223 213 209 210 202 199 194 192 192 192 190 186 184 181 178 174 171 170 172 170 165 162 158 156 153 150 146 143 141 133 135 142 148 141 135 132 128 122 116 113
275 259 246 228 217 205 210 208 206 200 196 194 192 191 190 189 186 181 178 176 176 175 175 171 166 162 161 158 155 150 146 143 141 146 156 168 158 148 141 137 132 123 118
273 256 243 231 216 207 205 207 203 201 197 194 192 191 188 187 185 183 181 180 181 180 179 177 172 166 161 160 157 152 146 143 148 155 170 174 164 156 149 146 144 138 131
264 253 235 230 221 206 204 201 198 197 193 190 188 185 183 179 180 180 182 184 184 181 180 180 175 167 156 151 154 149 143 150 157 172 188 183 176 168 162 160 161 161 154
256 255 245 226 223 212 202 197 197 191 184 184 182 180 177 171 170 169 170 179 180 178 171 173 166 156 151 148 146 147 151 157 170 187 199 195 191 186 183 181 184 182 180
260 254 249 230 217 219 205 199 200 202 189 188 184 181 171 174 175 172 172 170 166 165 158 153 155 154 155 155 155 157 161 168 181 195 210 207 204 200 197 198 200 200 202
259 252 248 234 218 217 212 199 203 208 199 192 185 185 178 182 186 183 180 177 172 167 166 163 164 165 163 162 166 168 174 180 186 196 212 218 217 215 210 208 213 219 215
258 247 243 241 227 216 220 208 206 212 199 190 188 189 186 184 189 189 186 184 181 177 174 173 173 174 172 171 174 179 183 185 192 199 211 222 226 227 223 221 223 223 222
260 245 237 242 229 216 222 216 207 210 199 198 196 191 190 188 190 193 191 190 185 177 175 171 171 174 174 174 181 184 187 190 194 203 212 222 230 234 234 231 232 228 229
255 250 237 243 230 221 221 224 212 212 210 202 195 193 194 192 190 193 196 195 184 177 176 177 175 183 184 178 181 189 189 191 198 205 212 219 224 231 237 238 240 236 237
248 246 238 240 232 223 221 225 221 212 215 206 197 197 197 194 192 194 199 195 182 180 183 187 183 184 188 183 182 185 192 196 201 204 209 217 221 225 232 238 242 242 243
247 240 236 238 231 216 213 225 229 219 216 207 204 203 198 197 196 196 198 194 185 186 189 188 185 181 187 180 173 177 198 208 204 207 212 216 222 224 227 230 234 240 245
254 245 237 233 226 207 202 209 220 218 209 208 211 207 202 200 199 201 202 194 192 194 195 186 186 178 184 165 146 145 288 232 221 221 214 213 220 222 220 222 225 231 242
257 250 251 241 226 212 209 212 227 214 208 212 211 210 209 205 202 206 202 199 199 195 193 191 181 178 181 174 162 149 183 285 254 223 213 215 221 215 215 221 222 226 232
272 257 255 247 226 216 210 213 228 208 198 211 214 216 216 211 206 206 205 201 199 196 197 196 189 183 187 188 182 163 168 209 230 239 218 217 214 212 219 218 221 225 227
270 265 261 248 228 220 208 207 210 216 223 227 221 222 223 216 211 209 208 205 202 199 198 198 196 191 183 186 193 200 178 156 164 211 253 228 218 218 218 219 218 222 221
271 270 266 255 238 230 218 210 212 220 226 223 217 218 227 223 214 209 211 209 204 201 200 197 195 193 191 187 184 175 170 161 154 172 222 231 237 227 217 214 212 217 220
288 273 259 256 254 247 230 217 218 220 218 217 222 220 225 226 220 211 209 210 204 202 200 199 198 195 195 189 186 181 172 168 177 178 207 212 225 234 221 215 213 216 217
Height
1476 1477 1478 1479 1481 1483 1485 1487 1489 1491 1493 1494 1496 1498 1499 1500 1502 1503 1504 1506 1507 1508 1509 1510 1511 1512 1513 1513 1514 1515 1515 1516 1516 1517 1517 1517 1518 1518 1518 1519 1519 1519 1520
1476 1476 1477 1479 1481 1483 1485 1487 1489 1490 1492 1494 1496 1497 1499 1500 1501 1503 1504 1506 1507 1508 1509 1510 1511 1512 1512 1513 1514 1515 1515 1516 1516 1517 1518 1518 1518 1519 1519 1520 1520 1520 1521
1475 1476 1477 1479 1480 1482 1484 1486 1488 1490 1492 1494 1495 1497 1498 1500 1501 1502 1504 1505 1506 1508 1509 1510 1510 1511 1512 1513 1514 1515 1515 1516 1516 1517 1518 1518 1519 1520 1520 1521 1521 1521 1522
1475 1476 1477 1478 1480 1482 1484 1486 1488 1489 1491 1493 1494 1496 1498 1499 1501 1502 1503 1504 1506 1507 1508 1509 1510 1511 1512 1513 1514 1515 1516 1516 1517 1517 1518 1519 1520 1520 1521 1521 1522 1522 1522
1474 1475 1476 1478 1480 1481 1483 1485 1487 1488 1490 1492 1493 1495 1497 1498 1500 1501 1502 1504 1505 1506 1507 1508 1509 1510 1512 1513 1514 1515 1516 1516 1517 1518 1519 1519 1520 1521 1521 1522 1522 1522 1522
1473 1474 1475 1477 1478 1480 1482 1484 1486 1487 1489 1490 1492 1494 1495 1497 1498 1500 1501 1503 1504 1505 1506 1508 1509 1510 1511 1513 1514 1515 1515 1516 1517 1518 1519 1520 1520 1521 1522 1522 1522 1523 1523
1472 1473 1474 1476 1477 1478 1480 1482 1484 1485 1487 1489 1490 1492 1494 1495 1497 1498 1500 1501 1503 1504 1505 1507 1508 1509 1511 1512 1513 1514 1515 1516 1517 1518 1519 1520 1521 1521 1522 1522 1523 1523 1523
1470 1471 1473 1474 1475 1477 1478 1479 1481 1483 1485 1487 1489 1490 1492 1493 1495 1496 1498 1499 1501 1503 1504 1506 1507 1508 1510 1511 1513 1514 1515 1516 1517 1518 1519 1520 1521 1521 1522 1522 1522 1523 1523
1469 1469 1471 1472 1473 1475 1476 1477 1479 1480 1482 1484 1486 1488 1489 1491 1493 1494 1496 1498 1499 1501 1503 1504 1506 1507 1509 1510 1512 1513 1514 1515 1517 1518 1519 1520 1520 1521 1521 1522 1522 1522 1523
1467 1467 1468 1469 1470 1472 1473 1475 1476 1478 1479 1481 1483 1485 1487 1489 1490 1492 1493 1495 1497 1499 1501 1503 1504 1506 1507 1509 1510 1512 1513 1515 1516 1517 1518 1519 1520 1521 1521 1521 1522 1522 1522
1463 1464 1464 1465 1467 1468 1469 1471 1473 1475 1476 1478 1480 1482 1484 1486 1488 1489 1491 1492 1494 1497 1499 1500 1502 1504 1505 1507 1509 1511 1512 1514 1515 1516 1518 1519 1519 1520 1520 1521 1521 1521 1522
1458 1459 1460 1461 1462 1464 1465 1467 1469 1471 1473 1474 1476 1478 1480 1482 1484 1486 1488 1490 1492 1494 1496 1498 1500 1502 1503 1505 1507 1509 1511 1512 1514 1515 1516 1517 1518 1519 1520 1520 1520 1521 1521
1454 1455 1456 1456 1457 1459 1460 1462 1464 1466 1468 1470 1472 1474 1476 1478 1480 1482 1484 1487 1489 1491 1493 1495 1497 1499 1501 1503 1505 1507 1509 1511 1512 1514 1515 1516 1517 1518 1518 1519 1519 1519 1520
1449 1450 1451 1452 1453 1454 1455 1457 1459 1461 1463 1465 1467 1470 1472 1474 1476 1478 1481 1483 1485 1487 1489 1492 1494 1496 1499 1501 1503 1505 1507 1508 1510 1512 1513 1515 1516 1516 1517 1517 1518 1518 1518
1444 1444 1445 1447 1448 1449 1450 1452 1454 1456 1458 1460 1463 1465 1468 1470 1472 1474 1476 1479 1482 1484 1486 1488 1490 1493 1496 1498 1500 1502 1504 1506 1508 1510 1511 1513 1514 1515 1515 1516 1516 1517 1517
1439 1440 1441 1442 1443 1444 1445 1446 1448 1451 1453 1455 1457 1460 1463 1465 1468 1470 1472 1475 1478 1480 1483 1485 1487 1490 1492 1495 1497 1499 1502 1503 1505 1507 1509 1510 1511 1512 1513 1514 1514 1515 1515
1433 1434 1435 1437 1438 1439 1440 1442 1444 1446 1448 1450 1452 1455 1458 1461 1463 1465 1467 1470 1473 1476 1479 1481 1484 1487 1489 1491 1494 1496 1498 1500 1502 1504 1506 1507 1509 1510 1511 1511 1512 1513 1513
1428 1429 1430 1432 1432 1433 1435 1436 1438 1440 1442 1444 1447 1450 1452 1455 1458 1461 1463 1465 1468 1471 1475 1477 1480 1483 1485 1487 1490 1492 1495 1497 1499 1501 1503 1504 1506 1507 1508 1509 1509 1510 1511
1423 1423 1425 1426 1427 1428 1430 1431 1433 1435 1437 1439 1442 1444 1447 1450 1453 1455 1458 1460 1463 1466 1469 1472 1475 1478 1481 1483 1486 1489 1491 1494 1496 1497 1499 1501 1502 1504 1505 1506 1506 1507 1508
1418 1418 1420 1421 1422 1423 1425 1426 1427 1430 1432 1434 1436 1439 1442 1444 1447 1450 1453 1455 1458 1460 1463 1467 1470 1474 1477 1479 1482 1485 1488 1491 1492 1494 1495 1497 1499 1500 1501 1502 1503 1504 1504
1413 1413 1414 1416 1417 1418 1419 1421 1422 1424 1426 1428 1430 1433 1436 1439 1441 1444 1447 1450 1452 1455 1458 1461 1465 1469 1472 1476 1478 1480 1484 1487 1488 1489 1491 1493 1495 1496 1497 1499 1499 1500 1501
1408 1409 1409 1410 1411 1412 1414 1416 1417 1419 1420 1423 1425 1428 1431 1433 1436 1438 1441 1444 1447 1449 1452 1456 1459 1463 1466 1470 1472 1475 1479 1483 1483 1484 1486 1489 1491 1492 1493 1495 1496 1496 1497
1403 1404 1404 1405 1406 1408 1410 1411 1412 1414 1415 1417 1419 1421 1424 1427 1429 1432 1435 1438 1441 1444 1446 1450 1453 1457 1460 1464 1467 1470 1472 1474 1477 1479 1481 1484 1486 1488 1489 1491 1492 1492 1493
1399 1400 1401 1401 1401 1403 1404 1405 1406 1407 1408 1410 1413 1415 1418 1421 1423 1426 1428 1431 1434 1437 1440 1444 1447 1451 1455 1458 1461 1464 1466 1468 1471 1473 1476 1479 1482 1483 1485 1486 1487 1488 1489
1396 1397 1397 1397 1397 1399 1400 1400 1401 1402 1404 1406 1408 1410 1412 1414 1416 1419 1422 1425 1428 1431 1434 1438 1441 1445 1448 1451 1454 1457 1461 1463 1465 1467 1469 1473 1476 1478 1480 1481 1483 1484 1484
1394 1394 1394 1394 1393 1393 1394 1394 1395 1397 1398 1400 1402 1404 1405 1407 1409 1412 1416 1418 1421 1425 1428 1432 1436 1439 1442 1446 1449 1452 1454 1457 1460 1462 1465 1467 1470 1472 1474 1476 1477 1479 1480